Meteo orario Alihanmahi

Oggi, 28 Ottobre, Mercoledi

Tempo Temperatura Precipitazioni Vento Pressione Umidità
00:00 +7°C° 0 mm 2 m/s 634 mm Hg 72%
01:00 +6°C° 0 mm 2 m/s 634 mm Hg 70%
02:00 +6°C° 0 mm 2 m/s 634 mm Hg 67%
03:00 +5°C° 0 mm 3 m/s 634 mm Hg 68%
04:00 +6°C° 0 mm 2 m/s 634 mm Hg 63%
05:00 +6°C° 0 mm 2 m/s 634 mm Hg 58%
06:00 +6°C° 0 mm 2 m/s 634 mm Hg 53%
07:00 +8°C° 0 mm 2 m/s 635 mm Hg 49%
08:00 +11°C° 0 mm 1 m/s 635 mm Hg 45%
09:00 +13°C° 0 mm 1 m/s 636 mm Hg 39%
10:00 +14°C° 0 mm 1 m/s 636 mm Hg 39%
11:00 +15°C° 0 mm 2 m/s 636 mm Hg 38%
12:00 +16°C° 0 mm 2 m/s 636 mm Hg 38%
13:00 +16°C° 0 mm 2 m/s 636 mm Hg 41%
14:00 +15°C° 0 mm 2 m/s 636 mm Hg 44%
15:00 +15°C° 0 mm 2 m/s 636 mm Hg 48%
16:00 +14°C° 0 mm 2 m/s 635 mm Hg 51%
17:00 +13°C° 0 mm 2 m/s 635 mm Hg 53%
18:00 +12°C° 0 mm 1 m/s 634 mm Hg 56%
19:00 +11°C° 0 mm 1 m/s 634 mm Hg 54%
20:00 +10°C° 0 mm 2 m/s 634 mm Hg 51%
21:00 +10°C° 0 mm 2 m/s 634 mm Hg 49%
22:00 +9°C° 0 mm 2 m/s 633 mm Hg 47%
23:00 +9°C° 0 mm 2 m/s 633 mm Hg 45%

Domani, 29 Ottobre, Giovedi

Tempo Temperatura Precipitazioni Vento Pressione Umidità
00:00 +9°C° 0 mm 2 m/s 633 mm Hg 43%
01:00 +9°C° 0 mm 2 m/s 632 mm Hg 42%
02:00 +8°C° 0 mm 2 m/s 632 mm Hg 40%
03:00 +8°C° 0 mm 2 m/s 632 mm Hg 39%
04:00 +8°C° 0 mm 2 m/s 632 mm Hg 38%
05:00 +8°C° 0 mm 2 m/s 631 mm Hg 38%
06:00 +8°C° 0 mm 2 m/s 631 mm Hg 37%
07:00 +11°C° 0 mm 1 m/s 632 mm Hg 35%
08:00 +13°C° 0 mm 1 m/s 633 mm Hg 33%
09:00 +15°C° 0 mm 1 m/s 634 mm Hg 31%
10:00 +16°C° 0 mm 1 m/s 634 mm Hg 30%
11:00 +19°C° 0 mm 1 m/s 634 mm Hg 29%
12:00 +20°C° 0 mm 1 m/s 634 mm Hg 28%
13:00 +20°C° 0 mm 1 m/s 634 mm Hg 31%
14:00 +19°C° 0 mm 1 m/s 634 mm Hg 34%
15:00 +19°C° 0 mm 1 m/s 633 mm Hg 37%
16:00 +16°C° 0 mm 1 m/s 633 mm Hg 42%
17:00 +15°C° 0 mm 1 m/s 632 mm Hg 47%
18:00 +13°C° 0 mm 1 m/s 632 mm Hg 52%
19:00 +12°C° 0 mm 1 m/s 632 mm Hg 50%
20:00 +12°C° 0 mm 2 m/s 632 mm Hg 48%
21:00 +12°C° 0 mm 2 m/s 631 mm Hg 46%
22:00 +12°C° 0 mm 2 m/s 631 mm Hg 45%
23:00 +10°C° 0 mm 2 m/s 631 mm Hg 44%

Dopodomani, 30 Ottobre, Venerdi

Tempo Temperatura Precipitazioni Vento Pressione Umidità
00:00 +10°C° 0 mm 2 m/s 631 mm Hg 43%
01:00 +10°C° 0 mm 2 m/s 630 mm Hg 44%
02:00 +10°C° 0 mm 2 m/s 630 mm Hg 44%
03:00 +10°C° 0 mm 2 m/s 630 mm Hg 45%
04:00 +10°C° 0 mm 2 m/s 630 mm Hg 45%
05:00 +10°C° 0 mm 2 m/s 629 mm Hg 46%
06:00 +10°C° 0 mm 3 m/s 629 mm Hg 47%
07:00 +13°C° 0 mm 2 m/s 630 mm Hg 44%
08:00 +15°C° 0 mm 2 m/s 631 mm Hg 41%
09:00 +18°C° 0 mm 1 m/s 632 mm Hg 37%
10:00 +17°C° 0 mm 2 m/s 632 mm Hg 36%
11:00 +18°C° 0 mm 2 m/s 632 mm Hg 35%
12:00 +19°C° 0 mm 2 m/s 633 mm Hg 34%
13:00 +18°C° 0 mm 2 m/s 632 mm Hg 42%
14:00 +16°C° 0 mm 2 m/s 632 mm Hg 49%
15:00 +15°C° 0 mm 2 m/s 631 mm Hg 57%
16:00 +13°C° 0 mm 1 m/s 631 mm Hg 65%
17:00 +12°C° 0 mm 1 m/s 630 mm Hg 73%
18:00 +10°C° 0 mm 1 m/s 630 mm Hg 81%
19:00 +10°C° 0 mm 1 m/s 630 mm Hg 77%
20:00 +10°C° 0 mm 1 m/s 630 mm Hg 72%
21:00 +10°C° 0 mm 1 m/s 630 mm Hg 67%
22:00 +10°C° 0 mm 1 m/s 630 mm Hg 64%
23:00 +10°C° 0 mm 1 m/s 630 mm Hg 61%

31 Ottobre, Sabato

Tempo Temperatura Precipitazioni Vento Pressione Umidità
00:00 +10°C° 0 mm 1 m/s 630 mm Hg 58%
01:00 +10°C° 0 mm 1 m/s 629 mm Hg 56%
02:00 +9°C° 0 mm 2 m/s 629 mm Hg 53%
03:00 +9°C° 0 mm 2 m/s 629 mm Hg 51%
04:00 +9°C° 0 mm 2 m/s 629 mm Hg 51%
05:00 +9°C° 0 mm 2 m/s 629 mm Hg 51%
06:00 +9°C° 0 mm 2 m/s 629 mm Hg 50%
07:00 +12°C° 0 mm 2 m/s 630 mm Hg 49%
08:00 +13°C° 0 mm 2 m/s 630 mm Hg 47%
09:00 +15°C° 0 mm 2 m/s 631 mm Hg 45%
10:00 +16°C° 0 mm 2 m/s 631 mm Hg 41%
11:00 +18°C° 0 mm 2 m/s 632 mm Hg 37%
12:00 +19°C° 0 mm 2 m/s 632 mm Hg 33%
13:00 +19°C° 0 mm 2 m/s 632 mm Hg 34%
14:00 +20°C° 0 mm 1 m/s 632 mm Hg 35%
15:00 +20°C° 0 mm 1 m/s 631 mm Hg 36%
16:00 +18°C° 0 mm 1 m/s 631 mm Hg 40%
17:00 +15°C° 0 mm 2 m/s 630 mm Hg 44%
18:00 +13°C° 0 mm 2 m/s 630 mm Hg 48%
19:00 +13°C° 0 mm 2 m/s 630 mm Hg 48%
20:00 +13°C° 0 mm 2 m/s 630 mm Hg 49%
21:00 +12°C° 0 mm 2 m/s 630 mm Hg 49%
22:00 +12°C° 0 mm 2 m/s 630 mm Hg 49%
23:00 +12°C° 0 mm 2 m/s 630 mm Hg 49%

1 Novenbre, Domenica

Tempo Temperatura Precipitazioni Vento Pressione Umidità
00:00 +12°C° 0 mm 2 m/s 630 mm Hg 49%
01:00 +12°C° 0 mm 2 m/s 630 mm Hg 50%
02:00 +10°C° 0 mm 3 m/s 630 mm Hg 50%
03:00 +10°C° 0 mm 3 m/s 630 mm Hg 51%
04:00 +10°C° 0 mm 3 m/s 630 mm Hg 51%
05:00 +10°C° 0 mm 3 m/s 630 mm Hg 51%
06:00 +10°C° 0 mm 3 m/s 630 mm Hg 50%
07:00 +13°C° 0 mm 2 m/s 630 mm Hg 46%
08:00 +15°C° 0 mm 2 m/s 631 mm Hg 42%
09:00 +16°C° 0 mm 2 m/s 632 mm Hg 38%
10:00 +18°C° 0 mm 2 m/s 632 mm Hg 33%
11:00 +20°C° 0 mm 1 m/s 633 mm Hg 29%
12:00 +21°C° 0 mm 1 m/s 633 mm Hg 24%
13:00 +21°C° 0 mm 1 m/s 633 mm Hg 26%
14:00 +21°C° 0 mm 1 m/s 633 mm Hg 28%
15:00 +21°C° 0 mm 1 m/s 633 mm Hg 29%
16:00 +18°C° 0 mm 1 m/s 633 mm Hg 39%
17:00 +15°C° 0 mm 1 m/s 632 mm Hg 48%
18:00 +12°C° 0 mm 2 m/s 632 mm Hg 57%
19:00 +12°C° 0 mm 1 m/s 632 mm Hg 60%
20:00 +11°C° 0 mm 1 m/s 632 mm Hg 62%
21:00 +11°C° 0 mm 1 m/s 632 mm Hg 64%
22:00 +10°C° 0 mm 1 m/s 632 mm Hg 63%
23:00 +10°C° 0 mm 1 m/s 632 mm Hg 62%

2 Novenbre, Lunedi

Tempo Temperatura Precipitazioni Vento Pressione Umidità
00:00 +10°C° 0 mm 1 m/s 632 mm Hg 61%
01:00 +10°C° 0 mm 1 m/s 632 mm Hg 58%
02:00 +10°C° 0 mm 1 m/s 632 mm Hg 56%
03:00 +9°C° 0 mm 1 m/s 632 mm Hg 54%
04:00 +9°C° 0 mm 1 m/s 632 mm Hg 52%
05:00 +9°C° 0 mm 1 m/s 633 mm Hg 49%
06:00 +9°C° 0 mm 1 m/s 633 mm Hg 46%
07:00 +11°C° 0 mm 1 m/s 634 mm Hg 42%
08:00 +13°C° 0 mm 1 m/s 635 mm Hg 37%
09:00 +15°C° 0 mm 1 m/s 636 mm Hg 33%
10:00 +16°C° 0 mm 1 m/s 636 mm Hg 31%
11:00 +19°C° 0 mm 1 m/s 636 mm Hg 29%
12:00 +20°C° 0 mm 1 m/s 637 mm Hg 27%
13:00 +20°C° 0 mm 1 m/s 637 mm Hg 30%
14:00 +19°C° 0 mm 1 m/s 637 mm Hg 33%
15:00 +19°C° 0 mm 1 m/s 637 mm Hg 36%
16:00 +16°C° 0 mm 1 m/s 636 mm Hg 43%
17:00 +15°C° 0 mm 1 m/s 636 mm Hg 50%
18:00 +13°C° 0 mm 1 m/s 635 mm Hg 57%
19:00 +12°C° 0 mm 1 m/s 635 mm Hg 55%
20:00 +12°C° 0 mm 1 m/s 635 mm Hg 53%
21:00 +12°C° 0 mm 1 m/s 635 mm Hg 51%
22:00 +12°C° 0 mm 1 m/s 635 mm Hg 50%
23:00 +11°C° 0 mm 1 m/s 635 mm Hg 49%
Mostrare altro

Abbiamo bisogno del tuo consenso

Meteoprog e i nostri fornitori di servizi possono memorizzare e accedere a dati personali come cookie, identificatori di dispositivi o altre tecnologie simili sul tuo dispositivo e possono elaborare tali dati per personalizzare i contenuti e gli annunci, nonché fornire funzionalità dei social media e analizzarne il traffico.

  • Archiviare e/o accedere alle informazioni sul tuo dispositivo

    Cookie, identificatori di dispositivi o altre informazioni possono essere memorizzati o resi accessibili sul tuo dispositivo per le finalità sopra indicate.

  • Annunci e contenuti personalizzati, misurazione di annunci e contenuti, approfondimenti sul pubblico e sviluppo di prodotti

    Gli annunci e i contenuti possono essere personalizzati in base a un profilo. È possibile aggiungere più dati per personalizzare meglio annunci e contenuti. È possibile misurare il rendimento degli annunci e dei contenuti. È possibile ricavare informazioni sul pubblico che ha visto gli annunci e i contenuti. Tali dati possono essere utilizzati per sviluppare o migliorare l'esperienza, i sistemi e il software dell'utente.

Cliccando su “Accetto”, acconsenti all'uso di cookie, identificatori di dispositivo, web beacon o altre tecnologie simili. Puoi modificare le impostazioni nel browser del tuo dispositivo.

Per determinati scopi, è possibile fare affidamento su interessi legali, piuttosto che sul consenso. Puoi approfondire questo argomento consultando la nostra Informativa sulla privacy e sui cookie.